GW2897 Weather Reports


Display with metric or nautical units.
time (UTC)temp
F
wind
direction
speed
MPH
gust
MPH
rain 1hr
in
rain 24hr
in
rain mn
in
humidity
%
barometer
mb
20260508110926 52 0 0.0 0.0 0.00 0.90 0.00 96 1015.7
20260508110006 52 0 0.0 0.0 0.00 0.91 0.00 96 1015.6
20260508105404 52 0 0.0 0.0 0.00 0.92 0.00 96 1015.5
20260508104504 52 0 0.0 0.0 0.00 0.94 0.00 96 1015.4
20260508103609 52 0 0.0 0.0 0.00 0.96 0.00 96 1015.3
20260508102725 52 0 0.0 0.0 0.00 0.97 0.00 96 1015.1
20260508101806 52 0 0.0 0.0 0.00 0.97 0.00 96 1015.1
20260508100925 52 0 0.0 0.0 0.00 0.98 0.00 96 1014.9
20260508100006 52 0 0.0 0.0 0.00 1.00 0.00 96 1014.7
20260508095404 52 0 0.0 0.0 0.00 1.00 0.00 96 1014.6
20260508094517 52 0 0.0 0.0 0.00 1.03 0.00 96 1014.5
20260508093640 52 0 0.0 0.0 0.00 1.03 0.00 95 1014.6
20260508092705 52 0 0.0 0.0 0.00 1.03 0.00 96 1014.5
20260508091804 52 0 0.0 0.0 0.00 1.03 0.00 95 1014.4
20260508090904 53 0 0.0 0.0 0.00 1.03 0.00 95 1014.3
20260508090005 52 0 0.0 0.0 0.00 1.03 0.00 95 1014.1
20260508085405 53 0 0.0 0.0 0.00 1.03 0.00 95 1014.2
20260508084532 53 0 0.0 0.0 0.00 1.04 0.00 95 1014.3
20260508083604 53 0 0.0 0.0 0.00 1.05 0.00 95 1014.2
20260508082705 54 0 0.0 0.0 0.00 1.05 0.00 95 1014.3
20260508081805 54 0 0.0 0.0 0.00 1.05 0.00 95 1014.2
20260508080906 54 0 0.0 0.0 0.00 1.05 0.00 95 1014.1
20260508080005 55 0 0.0 0.0 0.00 1.06 0.00 95 1013.9
20260508075404 55 0 0.0 0.0 0.00 1.06 0.00 95 1013.9
20260508074517 55 0 0.0 0.0 0.00 1.06 0.00 94 1014.1
20260508073606 55 0 0.0 0.0 0.00 1.06 0.00 94 1014.1
20260508072704 55 0 0.0 0.0 0.00 1.06 0.00 94 1014.0
20260508071807 55 0 0.0 0.0 0.00 1.06 0.00 94 1013.9
20260508070904 56 0 0.0 0.0 0.00 1.06 0.00 94 1013.9
20260508070005 56 0 0.0 0.0 0.00 1.07 0.00 93 1013.9
20260508065425 56 0 0.0 0.0 0.00 1.07 0.00 93 1013.9
20260508064519 56 0 0.0 0.0 0.00 1.07 0.00 93 1013.7
20260508063625 56 0 0.0 0.0 0.00 1.07 0.00 91 1013.7
20260508062705 57 0 0.0 0.0 0.00 1.07 0.00 91 1013.6
20260508061847 57 0 0.0 0.0 0.00 1.07 0.00 91 1013.4
20260508060905 58 0 0.0 0.0 0.00 1.07 0.00 91 1013.5
20260508060005 58 0 0.0 0.0 0.00 1.07 0.00 90 1013.6
20260508055405 58 0 0.0 0.0 0.00 1.07 0.00 90 1013.6
20260508054505 59 301 0.0 1.0 0.00 1.07 0.00 89 1013.7
20260508053625 59 274 0.0 1.0 0.00 1.07 0.00 89 1013.7
20260508052704 59 0 0.0 0.0 0.00 1.07 0.00 90 1014.0
20260508051825 59 0 0.0 0.0 0.00 1.07 0.00 89 1014.0
20260508050905 59 0 0.0 0.0 0.00 1.07 0.00 88 1013.6
20260508050026 59 274 0.0 1.0 0.00 1.07 0.00 87 1013.7
20260508045404 59 274 0.0 1.0 0.00 1.07 0.00 87 1013.5
20260508044524 59 0 0.0 0.0 0.00 1.07 0.00 88 1013.5
20260508043605 59 0 0.0 0.0 0.00 1.08 0.00 89 1013.5
20260508042704 60 0 0.0 0.0 0.00 1.08 0.00 89 1013.4
20260508041804 60 0 0.0 0.0 0.00 1.08 0.00 90 1013.3
20260508040904 60 277 0.0 1.0 0.00 1.08 0.00 88 1013.3
20260508040025 60 0 0.0 0.0 0.00 1.09 0.00 88 1013.2
20260508035404 61 0 0.0 0.0 0.00 1.12 1.09 87 1013.2
20260508034525 62 0 0.0 0.0 0.00 1.14 1.09 85 1013.2
20260508033604 62 318 0.0 5.0 0.00 1.19 1.09 84 1013.2
20260508032704 63 287 0.0 5.0 0.00 1.28 1.09 84 1013.0
20260508031804 64 286 1.0 4.0 0.00 1.35 1.09 83 1012.9
20260508030906 64 289 2.0 5.0 0.00 1.38 1.09 82 1012.8
20260508030004 64 283 1.0 4.0 0.00 1.42 1.09 82 1012.6
20260508025404 64 275 1.0 5.0 0.00 1.45 1.09 82 1012.7
20260508024505 65 286 1.0 5.0 0.00 1.51 1.09 81 1012.5
20260508023605 66 275 1.0 4.0 0.00 1.62 1.09 79 1012.3
20260508022704 67 286 3.0 6.0 0.00 1.66 1.09 79 1012.3
20260508021804 67 286 3.0 8.0 0.00 1.69 1.09 79 1012.2
20260508020921 67 295 4.0 12.0 0.00 1.70 1.09 79 1012.1
20260508020004 68 287 5.0 12.0 0.00 1.71 1.09 79 1011.7
20260508015404 68 287 5.0 10.0 0.00 1.73 1.09 79 1011.6
20260508014504 68 286 4.0 10.0 0.00 1.75 1.09 79 1011.4
20260508013607 69 277 6.0 14.0 0.00 1.79 1.09 79 1011.2
20260508012705 69 279 5.0 10.0 0.00 1.81 1.09 79 1011.1
20260508011804 69 279 5.0 12.0 0.00 1.82 1.09 79 1010.7
20260508010904 69 287 4.0 9.0 0.00 1.82 1.09 80 1010.6
20260508010004 69 279 2.0 8.0 0.00 1.82 1.09 81 1010.5
20260508005440 69 274 1.0 4.0 0.00 1.82 1.09 80 1010.2
20260508004504 69 279 1.0 3.0 0.00 1.82 1.09 81 1010.1
20260508003604 70 278 1.0 5.0 0.00 1.82 1.09 80 1009.9
20260508002704 70 236 0.0 2.0 0.00 1.82 1.09 79 1009.8
20260508001825 71 268 0.0 3.0 0.00 1.82 1.09 77 1009.7
20260508000904 72 293 1.0 8.0 0.00 1.82 1.09 76 1009.5
20260508000004 72 275 3.0 8.0 0.00 1.82 1.09 75 1009.3
20260507235425 72 277 2.0 6.0 0.00 1.82 1.09 76 1009.2
20260507234520 74 279 2.0 6.0 0.00 1.82 1.09 75 1009.0
20260507233604 74 267 2.0 8.0 0.00 1.82 1.09 73 1008.9
20260507232704 75 274 4.0 10.0 0.00 1.82 1.09 72 1008.6
20260507231804 76 269 4.0 10.0 0.00 1.82 1.09 71 1008.5
20260507230904 76 270 6.0 12.0 0.00 1.82 1.09 70 1008.7
20260507230005 76 262 5.0 12.0 0.00 1.82 1.09 71 1008.5
20260507225426 76 266 5.0 17.0 0.00 1.82 1.09 71 1008.3
20260507224509 77 274 5.0 13.0 0.00 1.82 1.09 71 1008.5
20260507223604 77 269 5.0 14.0 0.00 1.82 1.09 71 1008.3
20260507222704 78 265 5.0 12.0 0.00 1.82 1.09 70 1008.3
20260507221829 78 252 4.0 13.0 0.00 1.82 1.09 70 1008.1
20260507220904 77 280 4.0 16.0 0.00 1.82 1.09 74 1008.0
20260507220004 78 278 5.0 15.0 0.00 1.82 1.09 73 1008.0
20260507215404 77 272 6.0 15.0 0.00 1.82 1.09 74 1008.0
20260507214504 78 261 4.0 13.0 0.00 1.82 1.09 75 1008.0
20260507213604 78 245 4.0 11.0 0.00 1.82 1.09 73 1008.0
20260507212704 77 280 4.0 11.0 0.00 1.82 1.09 76 1007.8
20260507211826 78 245 5.0 11.0 0.00 1.82 1.09 76 1007.7
20260507210905 77 268 5.0 12.0 0.00 1.82 1.09 75 1007.7
20260507210005 78 239 4.0 11.0 0.00 1.82 1.09 73 1007.8
20260507205404 77 272 4.0 10.0 0.00 1.82 1.09 77 1007.8
20260507204537 77 276 3.0 10.0 0.00 1.82 1.09 76 1007.8
20260507203604 77 275 5.0 14.0 0.00 1.82 1.09 75 1008.1
20260507202725 77 256 4.0 13.0 0.00 1.82 1.09 75 1008.1
20260507201814 77 261 5.0 13.0 0.00 1.82 1.09 76 1007.9
20260507200904 77 269 5.0 14.0 0.00 1.82 1.09 75 1008.0
20260507200005 76 268 6.0 12.0 0.00 1.82 1.09 77 1008.2
20260507195425 76 267 6.0 12.0 0.00 1.82 1.09 77 1008.5
20260507194505 76 279 5.0 11.0 0.00 1.82 1.09 79 1008.7
20260507193604 75 268 5.0 12.0 0.00 1.82 1.09 79 1008.5
20260507192704 75 280 6.0 12.0 0.00 1.82 1.09 80 1008.7
20260507191847 74 286 5.0 15.0 0.00 1.82 1.09 80 1008.8
20260507190904 74 252 4.0 9.0 0.00 1.82 1.09 83 1008.8
20260507190005 73 273 4.0 10.0 0.00 1.82 1.09 84 1008.9
20260507185404 73 256 4.0 10.0 0.00 1.82 1.09 83 1008.9
20260507184504 73 263 3.0 9.0 0.00 1.82 1.09 83 1008.9
20260507183604 73 271 3.0 9.0 0.00 1.82 1.09 85 1008.8
20260507182704 73 276 3.0 8.0 0.00 1.82 1.09 85 1008.8
20260507181855 72 276 4.0 8.0 0.00 1.82 1.09 86 1008.7
20260507180925 72 254 3.0 8.0 0.00 1.82 1.09 85 1008.5
20260507180004 72 269 4.0 8.0 0.00 1.82 1.09 86 1008.9
20260507175404 72 280 4.0 8.0 0.00 1.82 1.09 87 1008.8
20260507174504 72 273 3.0 8.0 0.00 1.82 1.09 88 1008.9
20260507173625 72 224 2.0 8.0 0.00 1.82 1.09 88 1009.0
20260507172725 72 245 2.0 6.0 0.00 1.82 1.09 89 1008.9
20260507171838 71 281 3.0 7.0 0.00 1.82 1.09 90 1008.7
20260507170904 70 282 2.0 5.0 0.00 1.82 1.09 90 1008.5
20260507170004 70 297 3.0 9.0 0.00 1.82 1.09 92 1008.7
20260507165419 69 296 3.0 9.0 0.00 1.82 1.09 94 1008.7
20260507164505 68 289 3.0 7.0 0.00 1.82 1.09 95 1009.3
20260507163604 68 256 2.0 6.0 0.01 1.82 1.09 95 1009.3
20260507162704 68 268 2.0 6.0 0.04 1.82 1.09 96 1009.6
20260507161804 68 279 1.0 6.0 0.05 1.82 1.09 96 1009.8
20260507160904 68 257 2.0 7.0 0.05 1.82 1.09 96 1010.1
20260507160005 68 253 1.0 4.0 0.05 1.82 1.09 97 1009.5
20260507155435 68 247 1.0 5.0 0.06 1.82 1.09 97 1009.3
20260507154504 68 290 1.0 2.0 0.06 1.82 1.09 98 1009.5
20260507153604 66 93 0.0 3.0 0.06 1.81 1.08 97 1008.8
20260507152705 66 298 2.0 5.0 0.05 1.78 1.05 97 1010.2
20260507151811 66 263 0.0 1.0 0.04 1.77 1.04 97 1009.7
20260507150904 66 202 0.0 2.0 0.05 1.77 1.04 97 1009.2
20260507150026 66 108 0.0 1.0 0.06 1.77 1.04 97 1009.2
20260507145404 66 123 0.0 3.0 0.13 1.76 1.03 97 1009.4
20260507144525 66 122 0.0 3.0 0.24 1.76 1.03 98 1009.3
20260507143604 65 268 1.0 3.0 0.33 1.75 1.02 97 1009.8
20260507142727 65 103 1.0 3.0 0.36 1.73 1.00 97 1009.1
20260507141804 65 116 1.0 3.0 0.39 1.73 1.00 97 1009.6
20260507140904 65 76 0.0 2.0 0.40 1.72 0.99 97 1009.9
20260507140006 65 325 1.0 4.0 0.45 1.71 0.98 97 1010.2
20260507135408 65 314 2.0 6.0 0.39 1.63 0.90 97 1010.6
20260507134505 66 295 3.0 8.0 0.33 1.52 0.79 97 1010.2
20260507133625 67 297 2.0 5.0 0.26 1.42 0.69 97 1010.1
20260507132727 67 353 0.0 1.0 0.28 1.37 0.64 98 1009.7
20260507131805 67 28 0.0 1.0 0.36 1.34 0.61 98 1009.3
20260507130925 67 330 0.0 1.0 0.39 1.32 0.59 98 1009.4
20260507130034 66 309 0.0 1.0 0.33 1.26 0.54 98 1009.7
20260507125404 66 307 0.0 2.0 0.31 1.24 0.51 98 1009.7
20260507124505 66 301 1.0 2.0 0.26 1.19 0.46 97 1009.9
20260507123605 66 281 0.0 1.0 0.23 1.16 0.43 97 1009.7
20260507122726 66 317 1.0 3.0 0.16 1.09 0.36 97 1009.6
20260507121803 66 317 1.0 3.0 0.05 0.98 0.25 97 1009.9
20260507120905 66 311 0.0 3.0 0.01 0.93 0.20 97 1009.4
20260507120016 66 269 0.0 2.0 0.02 0.93 0.20 97 1009.3
20260507115404 66 297 0.0 1.0 0.03 0.93 0.20 97 1009.0
20260507114504 66 93 0.0 4.0 0.05 0.93 0.20 97 1008.9
20260507113604 66 143 1.0 5.0 0.07 0.93 0.20 97 1008.6
20260507112724 66 151 1.0 5.0 0.08 0.93 0.20 97 1008.7
20260507111804 66 135 1.0 7.0 0.08 0.93 0.20 97 1008.8